THOR ABLESTAR DEB, 144

Orbit data source: Space-Track

THOR ABLESTAR DEB, 144 is space debris in LEO originally from a launch on Thu, 29 Jun 1961 UTC launched from the Air Force Eastern Test Range (AFETR). Debris objects in space refer to the collection of defunct objects orbiting the Earth. Examples of debris include non-operational satellites, rocket bodies, and fragments generated from explosions, collisions, or faulty payload assembly.

Loading next visibility...
Identifier
144, 1961-015AE
Orbit
LEO
Last TLE update
11 hours ago
Origin
Manufacturer
Unknown
Mission
Spacecraft
Bus & Motor
Unknown
Mass
Unknown
Launch date (UTC)
1961-06-29 (64 years ago)
Launch vehicle
Unknown
Launch site
Air Force Eastern Test Range (AFETR)
Object type
Payload
Rocket body
Debris
Shape & HBR
Unknown
Radar Cross Section
Small (<0.1 m²)

Expand to show TLE details & history

TLE from 11 hours ago
0 THOR ABLESTAR DEB
1 00144U 61015AE  25199.53602644  .00000131  00000-0  16460-3 0  9993
2 00144  66.4993 133.6635 0047128 220.9749 138.7783 13.91436315238220
Epoch: 2025-07-18T12:51Z
TLE epoch observation values (Epoch: 2025-07-18T12:51:52.684Z)
Latitude
-0.00004°
Longitude
4.10789°
Altitude
951.611 km
Speed
7.363 km/s
True Right ascension
08h 54m 39s
True Declination
0° 00' 00"
Sunlit
Object was in daylight at epoch
Visualization orbit readout
Latitude
47.90775°
Longitude
154.3685°
Altitude
932.779 km
Speed
7.389 km/s
Apparent Right ascension
21h 46m 09s
Apparent Declination
10° 27' 38"
Sunlit
Object is in daylight
Visualization observer readout
Local Sidereal Time
12:37:03
Azimuth
47.902° ENE
Elevation
-25.95°
Doppler factor
1
Orbital elements
Apogee altitude
956.433 km
Perigee altitude
887.625 km
Semi-major axis
7,300.166 km
Eccentricity
0.00471
Inclination
66.4993°
RAAN
133.6635°
Arg. of periapsis
220.9749°
True anomaly
139.1326°
Mean anomaly
138.7783°
Eccentric anomaly
138.95561°
Mean motion
3.47972 °/min
Orbital period
103.46 mins
BSTAR
0.0001646
Loading maneuver chart data...
Loading SW <> Apogee altitude chart data...
|